SCP
0 0 0 0 0 0 0 0 0 0 0 0 0 0 0 0 0 0 0 0 0 0 0 0 0 0 0 0 0 0 0 0 0 0 0 0 0 0 0 0 0 0 0 0
0 0 0 0 0 0 0 0 0 0 0 0 0 0 0 0 0 0 0 0 0 0 0 0 0 0 0 0 0 0 0 0 0 0 0 0 0 0 0 0 0 0 0 0
0 0 0 0 0 0 0 0 0 0 0 0 0 0 0 0 0 0 0 0 0 0 0 0 0 0 0 0 0 0 0 0 0 0 0 0 0 0 0 0 0 0 0 0
0 0 0 0 0 0 0 0 0 0 0 0 0 0 0 0 0 0 0 0 0 0 0 0 0 0 0 0 0 0 0 0 0 0 0 0 0 0 0 0 0 0 0 0
0 0 0 0 0 0 0 0 0 0 0 0 0 0 0 0 0 0 0 0 0 0 0 0 0 0 0 0 0 0 0 0 0 0 0 0 0 0 0 0 0 0 0 0
0 0 0 0 0 0 0 0 0 0 0 0 0 0 0 0 0 0 0 0 0 0 0 0 0 0 0 0 0 0 0 0 0 0 0 0 0 0 0 0 0 0 0 0
0 0 0 0 0 0 0 0 0 0 0 0 0 0 0 0 0 0 0 0 0 0 0 0 0 0 0 0 0 0 0 0 0 0 0 0 0 0 0 0 0 0 0 0
0 0 0 0 0 0 0 0 0 0 0 0 0 0 0 0 0 0 0 0 0 0 0 0 0 0 0 0 0 0 0 0 0 0 0 0 0 0 0 0 0 0 0 0
0 0 0 0 0 0 0 0 0 0 0 0 0 0 0 0 0 0 0 0 0 0 0 0 0 0 0 0 0 0 0 0 0 0 0 0 0 0 0 0 0 0 0 0
0 0 0 0 0 0 0 0 0 0 0 0 0 0 0 0 0 0 0 0 0 0 0 0 0 0 0 0 0 0 0 0 0 0 0 0 0 0 0 0 0 0 0 0
0 0 0 0 0 0 0 0 0 0 0 0 0 0 0 0 0 0 0 0 0 0 0 0 0 0 0 0 0 0 0 0 0 0 0 0 0 0 0 0 0 0 0 0
0 0 0 0 0 0 0 0 0 0 0 0 0 0 0 0 0 0 0 0 0 0 0 0 0 0 0 0 0 0 0 0 0 0 0 0 0 0 0 0 0 0 0 0
0 0 0 0 0 0 0 0 0 0 0 0 0 0 0 0 0 0 0 0 0 0 0 0 0 0 0 0 0 0 0 0 0 0 0 0 0 0 0 0 0 0 0 0
0 0 0 0 0 0 0 0 0 0 0 0 0 0 0 0 0 0 0 0 0 0 0 0 0 0 0 0 0 0 0 0 0 0 0 0 0 0 0 0 0 0 0 0
0 0 0 0 0 0 0 0 0 0 0 0 0 0 0 0 0 0 0 0 0 0 0 0 0 0 0 0 0 0 0 0 0 0 0 0 0 0 0 0 0 0 0 0
0 0 0 0 0 0 0 0 0 0 0 0 0 0 0 0 0 0 0 0 0 0 0 0 0 0 0 0 0 0 0 0 0 0 0 0 0 0 0 0 0 0 0 0
0 0 0 0 0 0 0 0 0 0 0 0 0 0 0 0 0 0 0 0 0 0 0 0 0 0 0 0 0 0 0 0 0 0 0 0 0 0 0 0 0 0 0 0
0 0 0 0 0 0 0 0 0 0 0 0 0 0 0 0 0 0 0 0 0 0 0 0 0 0 0 0 0 0 0 0 0 0 0 0 0 0 0 0 0 0 0 0
0 0 0 0 0 0 0 0 0 0 0 0 0 0 0 0 0 0 0 0 0 0 0 0 0 0 0 0 0 0 0 0 0 0 0 0 0 0 0 0 0 0 0 0
0 0 0 0 0 0 0 0 0 0 0 0 0 0 0 0 0 0 0 0 0 0 0 0 0 0 0 0 0 0 0 0 0 0 0 0 0 0 0 0 0 0 0 0
0 0 0 0 0 0 0 0 0 0 0 0 0 0 0 0 0 0 0 0 0 0 0 0 0 0 0 0 0 0 0 0 0 0 0 0 0 0 0 0 0 0 0 0
0 0 0 0 0 0 0 0 0 0 0 0 0 0 0 0 0 0 0 0 0 0 0 0 0 0 0 0 0 0 0 0 0 0 0 0 0 0 0 0 0 0 0 0
0 0 0 0 0 0 0 0 0 0 0 0 0 0 0 0 0 0 0 0 0 0 0 0 0 0 0 0 0 0 0 0 0 0 0 0 0 0 0 0 0 0 0 0
0 0 0 0 0 0 0 0 0 0 0 0 0 0 0 0 0 0 0 0 0 0 0 0 0 0 0 0 0 0 0 0 0 0 0 0 0 0 0 0 0 0 0 0
0 0 0 0 0 0 0 0 0 0 0 0 0 0 0 0 0 0 0 0 0 0 0 0 0 0 0 0 0 0 0 0 0 0 0 0 0 0 0 0 0 0 0 0
0 0 0 0 0 0 0 0 0 0 0 0 0 0 0 0 0 0 0 0 0 0 0 0 0 0 0 0 0 0 0 0 0 0 0 0 0 0 0 0 0 0 0 0
0 0 0 0 0 0 0 0 0 0 0 0 0 0 0 0 0 0 0 0 0 0 0 0 0 0 0 0 0 0 0 0 0 0 0 0 0 0 0 0 0 0 0 0
Wind_Speed
1 1 3 3 3 3 3 2 4 6 6 5 4 6 7 8 9 9 10 10 10 10 10 10 10 10 10 11 11 11 11 12 12 12 12 11 11 10 10 10 11 10 10 10
2 3 4 3 2 1 0 2 4 4 6 5 5 5 7 9 10 10 10 10 11 11 11 11 11 11 11 11 11 11 12 13 13 13 12 12 12 11 10 10 10 9 10 11
2 2 1 2 2 2 3 4 4 6 6 5 7 8 8 9 9 10 11 11 11 11 11 11 11 11 11 12 12 12 13 14 13 13 13 13 13 12 10 9 9 9 10 10
2 2 3 5 2 3 4 5 5 6 6 7 10 9 9 9 8 10 10 10 10 10 11 11 12 12 12 13 13 13 14 14 14 13 14 13 12 12 11 8 8 8 9 10
3 1 4 2 2 2 3 7 6 6 8 8 7 7 7 6 5 7 9 10 11 12 13 12 13 13 13 14 14 14 15 14 14 14 14 14 13 12 10 8 8 8 7 9
3 1 5 6 2 1 1 6 5 5 7 7 5 6 7 6 7 9 10 10 11 12 12 13 13 12 13 15 14 15 15 15 14 14 14 14 13 11 10 8 9 9 9 8
3 3 7 5 1 2 1 7 3 4 6 5 5 7 8 9 9 9 11 13 12 13 13 13 13 12 14 14 14 15 15 14 14 13 12 13 11 10 9 9 8 8 8 7
4 2 7 4 4 5 8 3 2 3 4 6 7 8 8 9 9 11 12 12 12 12 13 13 12 12 14 15 14 14 14 14 13 12 11 9 9 9 8 8 8 7 6 6
8 8 6 4 7 5 5 3 3 4 5 5 6 7 8 8 9 11 12 12 12 13 14 14 12 12 14 15 14 14 14 14 13 12 10 8 8 8 7 6 5 5 5 5
3 6 5 5 4 3 4 4 3 4 5 4 6 7 9 9 9 11 10 13 12 13 14 15 14 13 13 14 13 14 14 13 11 10 9 8 6 5 5 4 4 4 5 5
4 5 3 5 6 5 3 3 3 3 3 4 6 7 7 8 10 10 11 11 11 12 14 15 15 15 14 13 12 13 13 11 10 9 8 7 5 4 4 3 3 4 4 4
8 8 7 7 6 6 5 4 4 4 4 4 4 7 7 8 9 10 12 12 13 13 14 15 15 15 14 12 12 12 11 10 8 7 6 5 5 4 2 2 3 6 5 4
6 4 6 3 4 5 5 5 3 3 4 5 5 6 7 7 8 9 11 12 13 14 15 15 15 14 13 12 12 11 10 10 7 6 6 5 4 3 3 2 2 1 1 4
5 6 3 5 5 5 4 2 1 2 4 5 5 6 7 7 9 11 12 13 13 14 14 13 14 14 13 12 11 11 10 10 8 6 5 4 4 3 2 2 1 1 2 2
7 6 6 5 5 4 3 2 2 4 5 5 5 6 8 9 11 12 12 12 13 13 13 14 14 15 14 12 11 10 8 7 6 5 4 4 3 3 2 1 1 1 1 2
7 4 4 5 6 5 3 3 3 5 5 5 6 7 8 9 10 11 10 10 12 14 14 14 14 15 14 12 10 8 7 11 9 5 4 4 3 3 2 2 1 1 1 1
10 7 7 6 7 6 5 5 5 5 5 6 7 7 8 9 10 11 12 12 12 12 11 12 15 16 14 11 9 6 6 8 11 6 4 4 3 3 2 1 1 1 0 1
10 10 9 8 7 7 6 5 5 5 5 5 6 6 7 9 10 12 13 14 13 12 11 14 16 17 14 11 8 6 5 5 5 5 4 4 3 3 2 2 2 1 1 1
7 8 8 8 7 7 6 5 5 5 5 4 4 6 6 7 8 10 11 11 12 14 16 18 21 16 14 13 12 5 5 5 5 4 4 4 4 3 3 3 3 3 2 2
7 7 8 7 6 6 5 5 4 4 4 3 4 5 7 8 9 10 10 8 6 8 14 16 15 13 13 13 13 6 6 5 5 4 4 4 4 4 4 4 4 4 3 2
9 8 8 8 7 6 6 5 4 4 3 3 3 5 6 8 8 8 9 8 9 12 15 15 11 12 12 12 11 6 5 5 4 4 4 4 4 4 4 4 4 4 3 3
9 9 9 8 7 5 5 4 4 4 3 3 3 4 6 7 8 7 6 5 9 14 12 9 10 15 17 13 7 7 6 5 4 3 3 3 3 3 3 4 4 4 4 4
8 8 8 8 7 6 4 4 4 4 3 3 3 4 5 5 5 6 7 7 9 14 11 9 15 20 18 9 8 8 7 7 5 4 3 3 3 3 3 4 4 4 4 5
8 8 8 7 5 4 5 5 4 3 3 2 2 3 4 4 4 3 5 10 12 13 9 10 16 18 14 8 8 8 8 7 6 4 4 3 3 3 3 3 3 3 4 5
9 8 7 7 7 7 7 5 3 3 3 2 2 3 3 2 3 5 7 8 11 11 9 11 14 15 10 8 8 8 8 8 7 5 4 4 3 3 3 3 3 3 3 4
9 10 9 10 8 6 5 5 4 3 3 2 2 2 2 3 4 5 5 7 10 10 8 8 9 10 9 9 9 9 8 8 8 7 6 4 4 3 3 3 4 3 3 3
8 7 5 5 5 5 6 6 5 5 5 4 3 2 2 3 4 5 6 6 7 7 7 7 8 8 8 9 8 8 8 8 7 7 6 6 4 3 3 3 3 3 3 3
Wind_Direction
81 71 102 89 63 63 92 168 216 258 260 250 262 279 284 288 294 300 299 296 294 293 293 293 295 295 295 294 295 295 294 290 285 282 279 275 269 259 250 240 236 229 226 225
54 67 87 78 43 54 93 253 253 269 269 248 275 285 284 286 289 292 293 294 296 297 297 297 297 297 296 295 294 292 291 290 290 288 285 281 277 270 259 249 240 228 224 223
202 219 351 262 226 223 242 237 224 239 255 289 295 287 279 281 290 293 296 298 297 297 294 294 295 296 296 294 294 292 289 289 288 287 284 281 280 277 267 258 249 236 227 222
127 98 249 251 231 208 230 241 216 232 259 275 269 274 275 275 280 287 292 293 294 293 294 293 294 296 294 295 295 293 291 289 287 285 284 280 276 273 268 262 255 246 235 225
111 198 283 252 208 182 226 266 216 232 261 273 291 315 292 275 276 279 286 290 291 293 296 296 298 299 300 300 298 296 294 291 289 284 281 278 274 269 265 260 256 250 241 227
120 177 252 244 213 230 172 286 224 229 266 283 318 321 286 291 304 296 295 294 295 297 299 301 302 303 304 304 302 300 298 295 291 285 281 277 271 268 263 255 252 250 242 231
152 225 263 241 203 90 198 266 228 233 261 274 254 242 270 299 298 290 292 297 299 303 305 305 306 307 306 306 304 304 303 299 296 290 283 276 270 265 260 254 251 245 238 230
153 210 266 206 149 186 222 237 246 256 262 266 266 274 287 295 294 299 302 304 307 308 309 309 309 310 310 309 308 308 307 305 302 297 290 286 274 267 258 251 247 241 232 229
186 211 236 209 204 213 181 209 245 251 268 278 282 286 292 290 293 299 303 308 311 311 312 313 314 313 311 310 311 312 311 311 308 304 298 290 281 274 263 246 235 230 223 225
233 257 238 229 226 214 194 214 245 263 279 278 276 282 290 291 296 305 307 312 312 315 317 318 319 316 310 310 313 315 315 315 314 311 309 303 291 278 262 242 229 223 217 218
242 264 254 252 231 218 214 231 266 283 272 267 272 283 286 294 303 308 311 311 313 317 317 317 319 317 316 316 317 318 318 317 319 316 314 313 309 298 277 251 230 222 219 211
217 214 192 231 221 194 202 231 250 264 275 278 273 280 291 298 300 307 311 315 319 320 320 319 319 318 318 319 321 321 321 322 320 320 319 318 319 323 323 282 263 240 230 217
205 183 181 209 180 177 194 222 241 253 266 283 289 287 293 296 298 307 313 319 322 321 319 318 318 319 321 323 324 323 320 318 316 320 323 326 326 324 324 351 46 56 240 230
175 136 159 190 191 191 192 209 248 279 283 282 282 292 299 298 306 317 321 321 320 318 318 320 321 322 324 324 323 322 322 321 324 319 322 324 325 323 319 326 350 37 43 53
188 179 185 184 170 172 179 202 256 286 290 294 290 298 306 312 316 318 317 319 321 322 324 326 326 326 326 324 323 321 322 321 321 320 323 323 323 326 334 352 38 58 63 58
176 166 158 163 182 192 199 223 247 270 280 286 295 303 309 309 310 313 317 323 327 326 324 325 326 326 326 324 322 320 320 327 335 330 334 340 342 350 6 22 37 62 87 104
150 177 189 199 205 207 211 221 231 251 271 285 293 304 314 319 323 328 330 330 325 317 318 327 329 328 328 327 324 319 320 325 335 336 340 341 345 352 2 8 16 44 113 136
180 181 176 179 186 200 217 229 239 253 262 277 298 312 320 324 324 324 326 327 328 330 337 339 334 331 330 332 330 324 323 324 329 334 342 355 359 4 9 15 16 35 57 87
172 170 173 176 174 179 198 219 235 249 268 286 301 308 308 309 313 317 322 328 337 340 339 335 330 332 334 335 337 327 328 335 342 348 353 0 13 21 28 30 31 38 56 82
167 164 165 170 172 179 198 216 231 250 269 283 297 309 316 320 322 324 326 323 327 330 326 327 330 336 337 335 339 334 336 343 351 358 9 17 24 28 30 33 34 40 50 60
170 165 168 174 185 197 205 207 214 240 267 281 289 301 308 312 319 324 329 331 335 337 334 331 338 340 336 333 334 343 348 353 1 8 18 25 32 34 32 33 36 37 38 43
172 171 177 179 185 202 213 209 213 229 254 275 290 303 312 318 323 322 313 308 324 333 335 337 342 340 338 338 348 353 356 359 2 10 17 27 37 39 33 32 35 35 36 43
172 174 177 183 191 201 208 214 216 219 232 251 279 300 306 306 310 320 327 328 331 334 336 338 339 341 344 352 358 0 3 6 8 11 15 25 37 48 47 43 40 38 39 41
172 177 181 179 169 179 211 224 219 218 222 237 262 288 300 310 310 298 306 317 329 334 337 336 341 348 353 359 2 5 6 5 4 6 17 28 37 47 51 52 50 43 42 43
175 174 172 175 185 202 213 209 204 214 219 244 275 298 306 295 299 313 323 329 336 341 342 343 349 355 3 2 3 5 6 5 3 1 13 26 36 46 51 54 58 56 48 43
180 186 191 197 198 191 183 178 187 200 204 229 261 287 312 317 319 324 331 337 343 345 349 353 356 360 4 4 4 5 7 4 6 9 8 13 26 40 45 48 52 52 46 38
196 193 191 199 194 182 179 178 183 193 194 200 226 265 306 324 333 340 346 349 352 354 355 358 1 3 4 6 6 8 10 9 8 8 7 8 13 22 31 39 41 42 39 38